Regional Weather Roundup
Issued by NWS Wakefield, VA

Home | Current Version | Previous Version | Text Only | Print | Product List | Glossary On
Versions: 1 2 3 4 5 6 7 8 9 10 11 12 13 14 15 16 17 18 19 20 21 22 23 24 25 26 27
000
ASUS41 KAKQ 310715
RWRAKQ

REGIONAL WEATHER ROUNDUP
NATIONAL WEATHER SERVICE WAKEFIELD VA
300 AM EDT SUN JUL 31 2016

Note: "fair" indicates few or no clouds below 12,000 feet with no
significant weather and/or obstructions to visibility. * = Denotes
station may not report precipitation (e.g., rain,snow,etc.),
thunder or fog.

VAZ042-051-052>054-056-310800-
NORTHERN VIRGINIA

CITY           SKY/WX    TMP DP  RH WIND       PRES   REMARKS
WASH NATIONAL  CLOUDY    76  73  91 N3        29.95R
DULLES         CLOUDY    72  71  97 NE5       29.94F
FORT BELVOIR   CLOUDY    73  72  95 NW1       29.94S
QUANTICO       NOT AVBL
FREDERICKSBRG* MOCLDY    72  72 100 CALM      29.94S
STAFFORD*      CLOUDY    71  70  97 CALM      29.99S FOG
WARRENTON      HAZE      72  67  86 CALM      29.94F VSB 1/4
CULPEPER*      FOG       70  70 100 CALM      29.95F VSB 1/2
MANASSAS*      CLOUDY    72  72 100 S3        29.95R VSB 1
LEESBURG*      CLOUDY    72  72 100 CALM      29.96S FOG
WINCHESTER     CLOUDY    72  70  94 CALM      29.95F FOG
FRONT ROYAL*   CLOUDY    70  70 100 S3        29.94F
LURAY*         FOG      N/A N/A N/A CALM      29.97  VSB 1/2
$$

VAZ048-049-060>072-079>083-310800-
CENTRAL AND SOUTH CENTRAL VIRGINIA

CITY           SKY/WX    TMP DP  RH WIND       PRES   REMARKS
RICHMOND       FAIR      73  72  96 NW3       29.93F
CHESTERFIELD*  FAIR      72  61  68 CALM      29.95F
PETERSBURG*    FAIR     N/A N/A N/A CALM      29.94F
HANOVER        CLOUDY    73  71  93 CALM      29.95F FOG
TAPPAHANNOCK*  FOG       74  74 100 CALM      29.94F VSB 1/4
QUINTON*       FAIR      73  73 100 CALM      29.92F
CHARLOTTSVILLE FOG       71  69  93 CALM      29.95F VSB 1/4
GORDONSVILLE*  CLOUDY    70  70 100 S5        29.94F FOG
ORANGE*          N/A     70  70 100 CALM      29.96F
LOUISA*        FAIR      73  73 100 CALM      29.94F
BUMPASS*       FAIR      69  69 100 CALM      29.95S
FARMVILLE*     FOG      N/A N/A N/A CALM      29.94F VSB 1/2
CREWE*         NOT AVBL
FORT PICKETT*  CLOUDY    71  71  98 S9        29.95F VSB 3/4
CHASE CITY*    FAIR      73  72  95 CALM      29.96S
CLARKSVILLE*   FAIR      73  73 100 CALM      29.95F
SOUTH HILL*    FAIR      73  73 100 CALM      30.01S
LAWRENCEVILLE* CLOUDY    72  72 100 CALM      29.95S VSB 3/4
EMPORIA*       CLOUDY    72  72 100 CALM      29.96S
$$

VAZ088>098-310800-
SOUTHEAST VIRGINIA

CITY           SKY/WX    TMP DP  RH WIND       PRES   REMARKS
NORFOLK        FAIR      76  74  93 N3        29.93F
VIRGINIA BEACH MOCLDY    79  72  79 CALM      29.92F
NORFOLK NAVAL  MOCLDY    76  74  93 N5        29.94F
WEST POINT*    FAIR      73  72  96 CALM      29.94S
SALUDA*        FAIR      73  73 100 CALM      29.93F
NEWPORT NEWS   FAIR      73  72  96 CALM      29.93F
LANGLEY AFB    FAIR      74  74  98 CALM      29.93S
FORT EUSTIS    FAIR      75  73  95 CALM      29.91F
WILLIAMSBURG*  FAIR      75  73  94 CALM      29.94S
HR EXEC AP*    FAIR      72  70  94 CALM      29.95F
FRANKLIN*      CLOUDY    73  72  98 CALM      29.95S FOG
US460-WAKEFLD  CLOUDY    73  72  96 CALM      29.94S FOG
$$

VAZ020-022-025-037-045-310800-
WEST CENTRAL AND SOUTHWEST VIRGINIA

CITY           SKY/WX    TMP DP  RH WIND       PRES   REMARKS
STAUNTON*      FOG       69  69 100 CALM      30.01F VSB 1/4
WAYNESBORO*    CLOUDY    69  68  96 CALM      30.01F
HOT SPRINGS VA FAIR      66  66 100 W8        30.13S
LYNCHBURG      FAIR      72  71  97 CALM      29.99F
DANVILLE       FAIR      73  71  93 CALM      29.96F
SOUTH BOSTON*  FAIR     N/A N/A N/A CALM      29.96S
MARTINSVILLE   FAIR      70  69  96 CALM      30.01F
ROANOKE        FAIR      72  70  93 W3        30.02F
BLACKSBURG     FAIR      68  68  99 CALM      30.10S FOG
DUBLIN*        FAIR      69  69  98 CALM      30.08F
MARION*        FAIR      66  65  96 CALM      30.12F FOG
HILLSVILLE*    FAIR      67  67  99 SW3       30.10S
RICHLANDS*     RAIN      69  68  99 SW5       30.12R
WISE*            N/A     68  66  94 CALM      30.12S
ABINGDON*      MOCLDY    71  70  97 CALM      30.08F
$$

MDZ021>025-VAZ099-100-310800-
SOUTHERN MARYLAND AND THE DELMARVA PENINSULA

CITY           SKY/WX    TMP DP  RH WIND       PRES   REMARKS
PATUXENT RIVER NOT AVBL
BAY BRIDGE APT CLOUDY    75  73  94 E3        29.93S
LEONARDTOWN    CLOUDY    73  72  94 S3        29.95S
DOVER          CLOUDY    76  76 100 SE6       29.92F
GEORGETOWN     PTCLDY    75  73  93 CALM      29.94F
EASTON         MOCLDY    75  75 100 E3        29.97S
CAMBRIDGE      CLOUDY    72  72 100 CALM      29.92S
SALISBURY      NOT AVBL
OCEAN CITY     CLOUDY    78  74  87 SE5       29.93F
WALLOPS ISLAND FAIR      77  73  87 SW5       29.93F
ACCOMACK*      FAIR      73  72  94 CALM      29.93F
$$

NCZ012>017-030>032-310800-
NORTH CENTRAL AND EASTERN NORTH CAROLINA

CITY           SKY/WX    TMP DP  RH WIND       PRES   REMARKS
ROANOKE RAPIDS FAIR      73  73 100 CALM      29.94F
RALEIGH        CLOUDY    77  71  82 SW8       29.97F
ELIZABETH CITY CLOUDY    76  74  93 NW7       29.95S
AHOSKIE*       PTCLDY    73  72  98 CALM      29.95S
EDENTON*       CLOUDY    82  82 100 SW6       29.95F
CURRITUCK*     CLOUDY    76  76 100 CALM      29.95S
KILL DEVIL HLS CLOUDY    81  81 100 SW7       29.93S
MANTEO         CLOUDY    81  80  99 SW13      29.95S
CAPE HATTERAS  PTCLDY    80  80 100 SW12      29.97S
TARBORO*       FAIR      75  74  95 S3        29.96F
GOLDSBORO      CLEAR     78  76  94 S2        29.95F
WASHINGTON     PTCLDY    76  75  97 CALM      29.96F
GREENVILLE     CLOUDY    77  77 100 CALM      29.98F
NEW BERN       CLEAR     79  75  87 W3        29.98F
WILMINGTON     CLEAR     82  77  84 S12       29.99F
$$

VAZ048-310800-
ELSEWHERE

CITY           SKY/WX    TMP DP  RH WIND       PRES   REMARKS
HARRISBURG PA  CLOUDY    73  71  93 CALM      29.95F
BALTIMORE      CLOUDY    73  72  96 CALM      29.93F
ANNAPOLIS      CLOUDY    77  75  93 N5        29.92F
ANDREWS AFB    PTCLDY    73  72  94 W2        29.94R
PHILADELPHIA   LGT RAIN  76  73  91 E8        29.95F
HENDERSON NC   CLOUDY    72  70  95 SW6       29.96F
GREENSBORO     MOCLDY    77  71  82 SW5       29.98F
ROCKY MOUNT    CLOUDY    76  76 100 SW5       29.96F
$$

VAZ100-310800-
MARINE

STATION/POSITION TIME  TEMP    WIND        PRES    WAVE   SWELL
                       AIR SEA DIR/SP/G            HT/PER HT/PER
                 (UTC) (F)     (DEG/KT/KT) (MB)    (FT/S) (FT/S)
BRANDYWINE LGT   0600   77     150/  9/ 10   N/A
CAPE MAY NJ      0600   76 75   90/  2/  3 1013.5F
LEWES DE         0600   76 72  160/  5/  6 1013.7F
OCEAN-CITY-INLET 0600   78 77  150/  5/  6 1014.4F
WACHAPREAGUE VA  0600   77 85  210/  2/  3 1014.0F
THOMAS POINT MD  0700   77 83   90/  3/  4 1014.7F
GOOSES REEF MD   0700   80 84  240/ 10/ 12 1014.3F   1/ 2
COVE POINT MD    0600   78     270/  9/ 11 1014.0F
SOLOMONS ISLAND  0600   78 85  260/  4/  8   N/A
BISHOPS HEAD MD  0600   80     200/  6/  7 1013.7F
PINEY POINT MD   0600          230/  8/  9   N/A
POTOMAC MD       0700   78 84  230/  8/ 10 1012.4F   1
CAMBRIDGE MD     0600   75 86  160/  1/  5 1012.6F
LEWISETTA VA     0600   76 85  230/  6/  8 1013.5F
RAPPAHANNOCK LGT 0600          240/  6/  7 1014.5F
STINGRAY PT      0600   79 85  180/  8/ 10 1014.3F   0
YORK RVR RNG VA  0600   78     340/  5/  6 1013.4F
YORKTOWN VA      0600   77 84  350/  4/  5 1013.4F
JAMESTOWN VA     0700   76 88   60/  4/  4   N/A     0
DOMINION TERM VA 0600   78     290/  5/  6 1014.0F
KIPTOPEKE VA     0600      77  250/  2/  3   N/A
CHES BAY BRIDGE  0600   78 81  270/  5/  6 1013.6F
CAPE HENRY VA    0600   76     300/  3/  4   N/A
WILLOUBY STN VA  0600   77      CALM  /  1   N/A
CAPE HENRY BUOY  0642      78                N/A     2/ 6
1ST LANDING BUOY 0700   79 80  340/  8/ 10 1013.2F   1/ 5
CAPE CHARLES BUO 0556      77                N/A     2/ 6
OFFSHORE WE BUOY 0651      78                N/A     2/ 6
64NM E OF VA BCH 0650   83 83  250/ 14/ 17 1012.9R   3/ 5
DUCK PIER NC     0600   82 70  230/ 13/ 16 1013.1F
44100 DUCK FRF   0605      82                N/A     3/ 4
44056 DUCK FRF   0641      78                N/A     2/ 6
OREGON INLET NC  0600   84 79  230/ 15/ 18 1014.1F
HATTERAS NC      0600   81 82  210/  9/ 13 1014.5F
DIAMOND SHLS NC  0650   85 84  220/ 19/ 23 1014.4F   5/ 4   2/ 8
CAPE LOOKOUT NC  0700   84     230/ 12/ 16 1015.2F
$$




USA.gov is the U.S. government's official web portal to all federal, state and local government web resources and services.